Weather Roundup
Issued by NWS

Home | Current Version | Previous Version | Graphics & Text | Print | Product List | Glossary Off
Versions: 1 2 3 4 5 6 7 8 9 10 11 12 13 14 15 16 17 18 19 20 21 22 23 24 25 26 27 28 29 30 31 32 33 34 35 36 37 38 39 40 41 42 43 44 45 46 47 48 49 50

000
NZUS93 KARX 240959
HRRWXR

CURRENT HOURLY OBSERVATIONS ACROSS
MUCH OF THE UPPER MISSISSIPPI VALLEY
NATIONAL WEATHER SERVICE LA CROSSE WI
400 AM CST TUE JAN 24 2017


...SOUTHEAST MINNESOTA...


CITY           SKY/WX    TMP DP  RH WIND       PRES   REMARKS
ROCHESTER      CLOUDY    30  27  88 NW6       29.85S WCI  24
ROCHESTER/MAYO CLOUDY    31  29  91 NW3       29.85S
WINONA         CLOUDY    34  32  93 CALM      29.88S
AUSTIN         CLOUDY    30  27  86 NW5       29.86R WCI  25
ALBERT LEA     CLOUDY    30  28  93 CALM      29.86R
DODGE CENTER   CLOUDY    30  27  86 MISG      29.84F
PRESTON        CLOUDY    30  26  84 NW6       29.86R WCI  24
OWATONNA       CLOUDY    30  27  86 N3        29.86S
FARIBAULT      NOT AVBL
$$

...ELSEWHERE IN MINNESOTA...


CITY           SKY/WX    TMP DP  RH WIND       PRES   REMARKS
MINNEAPOLIS    CLOUDY    32  26  78 N6        29.87F WCI  26
INTNL FALLS    CLOUDY    29  23  78 SW6       29.84R WCI  23
DULUTH         CLOUDY    31  27  85 NW8       29.82S WCI  23
RED WING       CLOUDY    34  27  75 CALM      29.86F
REDWOOD FALLS  CLOUDY    32  26  78 CALM      29.86S
MANKATO        CLOUDY    31  27  85 N3        29.87R
WORTHINGTON    CLOUDY    31  29  92 E8        29.82  WCI  23
FAIRMONT       CLOUDY    31  29  92 E5        29.86S WCI  26
$$

...SOUTHWEST WISCONSIN...


CITY           SKY/WX    TMP DP  RH WIND       PRES   REMARKS
LA CROSSE      CLOUDY    35  31  85 NW3       29.86F
PRAIRIE DU CHI CLOUDY    33  31  94 CALM      29.86S
BOSCOBEL       CLOUDY    34  32  92 CALM      29.87S
LONE ROCK      NOT AVBL
PLATTEVILLE    CLOUDY    33  33 100 W3        29.85S
FORT MC COY    CLOUDY    31  31 100 CALM      29.87S FOG
MAUSTON-NEW LI CLOUDY    33  32  96 CALM      29.84S FOG
VIROQUA        CLOUDY    32  32 100 CALM      29.83F
WIS DELLS      CLOUDY    33  32  95 W5        29.84S WCI  29
$$

...ELSEWHERE IN WISCONSIN...


CITY           SKY/WX    TMP DP  RH WIND       PRES   REMARKS
MILWAUKEE      CLOUDY    37  34  89 W6        29.83R FOG     WCI  32
MADISON        CLOUDY    34  31  88 NW5       29.84S WCI  30
GREEN BAY      CLOUDY    36  35  96 W5        29.81R WCI  32
EAU CLAIRE     NOT AVBL
BLACK RVR FLS  CLOUDY    33  33 100 CALM      29.85S FOG
MEDFORD        CLOUDY    32  31  98 NW3       29.81S
WAUSAU         CLOUDY    33  32  96 NW6       29.80S WCI  28
WIS RAPIDS     CLOUDY    33  33 100 NW7       29.83F WCI  27
MARSHFIELD     CLOUDY    33  31  92 W6        29.81F WCI  28
RICE LAKE      CLOUDY    32  32  99 SW3       29.86S FOG
$$

...NORTHEAST IOWA...


CITY           SKY/WX    TMP DP  RH WIND       PRES   REMARKS
WATERLOO       CLOUDY    32  29  88 N3        29.86S
DUBUQUE        CLOUDY    33  30  88 NW5       29.85S WCI  29
DECORAH        CLOUDY    32  30  93 CALM      29.85R
MASON CITY     CLOUDY    31  27  85 CALM      29.87R
CHARLES CITY   CLOUDY    32  32 100 N3        29.86F
OELWEIN        CLOUDY    32  30  93 CALM      29.86R
$$

...ELSEWHERE IN IOWA...


CITY           SKY/WX    TMP DP  RH WIND       PRES   REMARKS
DES MOINES     CLOUDY    32  28  85 S6        29.86F WCI  26
IOWA CITY      CLOUDY    34  28  79 CALM      29.90R
FORT DODGE     CLOUDY    30  27  86 E5        29.86R WCI  25
MARSHALLTOWN   CLOUDY    32  29  88 CALM      29.86R
CEDAR RAPIDS   CLOUDY    31  28  89 SW3       29.86S
$$

...NORTHERN ILLINOIS...


CITY           SKY/WX    TMP DP  RH WIND       PRES   REMARKS
CHICAGO-OHARE  CLOUDY    37  33  85 NW8       29.83S WCI  31
CHICAGO-MIDWAY CLOUDY    38  32  79 NW10      29.83S WCI  31
MOLINE         CLOUDY    34  30  85 CALM      29.87R
ROCKFORD       CLOUDY    36  31  82 N7        29.86F WCI  30
PEORIA         CLOUDY    35  33  92 W3        29.88S
$$

NOTE: "FAIR" INDICATES FEW OR NO CLOUDS BELOW 12,000 FEET WITH NO
SIGNIFICANT WEATHER AND/OR OBSTRUCTIONS TO VISIBILITY. WIND
SPEEDS ARE IN MILES-PER-HOUR.




USA.gov is the U.S. government's official web portal to all federal, state and local government web resources and services.